Regional Weather Roundup
Issued by NWS Sterling, VA

Home | Current Version | Previous Version | Graphics & Text | Print | Product List | Glossary On
Versions: 1 2 3 4 5 6 7 8 9 10 11 12 13 14 15 16 17 18 19 20 21 22 23 24 25 26 27 28 29 30 31 32 33 34 35 36 37 38 39 40 41 42 43 44 45 46 47 48 49 50
000
ASUS41 KLWX 241810
RWRLWX

REGIONAL WEATHER ROUNDUP
NATIONAL WEATHER SERVICE BALTIMORE MD/WASHINGTON DC
100 PM EST SAT JAN 24 2015

Note: "FAIR" indicates few or no clouds below 12,000 feet
with no significant weather and/or obstructions to visibility.
 TC=TEMPERATURE CELSIUS

 * =Non NWS site. Station does not report precipitation (e.g. rain,
    snow, etc.), thunder, or fog.

DCZ001-MDZ009-015-VAZ040>042-051-053>054-241900-
WASHINGTON METRO

CITY           SKY/WX    TMP DP  RH WIND       PRES   REMARKS
WASHINGTON NAT CLOUDY    41  34  76 NW14G20   29.48F
DULLES         CLOUDY    38  34  85 NW13      29.49F
ANDREWS AFB    CLOUDY    37  36  93 NW17G23   29.44F WCI  28
FT BELVOIR     CLOUDY    37  34  87 NW15      29.48F WCI  28
QUANTICO       CLOUDY    40  34  79 N13G28    29.49F
COLLEGE PARK*  CLOUDY    37  36  93 NW8       29.46F
LEESBURG*      DRIZZLE   37  36  93 N7        29.49F
MANASSAS*      CLOUDY    39  37  93 N13       29.49S
GAITHERSBURG*  CLOUDY    36  34  93 NW12      29.49F WCI  27

$$

MDZ006>007-011-014-241900-
BALTIMORE METRO

CITY           SKY/WX    TMP DP  RH WIND       PRES   REMARKS
BWI AIRPORT    CLOUDY    38  34  85 NW8       29.44F
MD SCIENCE CTR   N/A     37  34  89 MISG      29.45F
MARTIN STATE   LGT RAIN  39  37  93 NW15      29.45F FOG
ANNAPOLIS      CLOUDY    38  35  89 NW10      29.44S
FORT MEADE*    CLOUDY    37  34  87 NW8       29.48F

$$

MDZ012-015-019>023-241900-
MARYLAND EASTERN SHORE

CITY           SKY/WX    TMP DP  RH WIND       PRES   REMARKS
OCEAN CITY     CLOUDY    38  37  97 NW14G21   29.37S
SALISBURY      CLOUDY    42  37  82 N10       29.37F
BAY BRIDGE AP*   N/A     37  37 100 NW10      29.44R FOG
CAMBRIDGE*     CLOUDY    37  36  93 NW10      29.41F
EASTON*        CLOUDY    39  39 100 N9        29.45F FOG

$$

MDZ017>025-241900-
SOUTHERN MARYLAND

CITY           SKY/WX    TMP DP  RH WIND       PRES   REMARKS
PATUXENT RIVER CLOUDY    38  35  89 NW16G23   29.42F FOG     WCI  29
ST INIGOES     CLOUDY    39  35  86 NW8       29.41F
LEONARDTOWN*   CLOUDY    37  36  93 NW5       29.43F

$$

MDZ003>005-241900-
NORTH CENTRAL MARYLAND

CITY           SKY/WX    TMP DP  RH WIND       PRES   REMARKS
FREDERICK*     LGT RAIN  39  34  81 CALM      29.50F
HAGERSTOWN APT CLOUDY    36  32  85 NW6       29.48F
WESTMINSTER*   LGT SNOW  34  32  93 N7        29.43F

$$

MDZ501>502-241900-
WESTERN MARYLAND

CITY           SKY/WX    TMP DP  RH WIND       PRES   REMARKS
OAKLAND*       CLOUDY    27 N/A N/A W13G18    29.49S WCI  16
CUMBERLAND*    CLOUDY    37  32  81 W9G20     29.57F

$$

VAZ025>031-241900-
SHENANDOAH VALLEY

CITY           SKY/WX    TMP DP  RH WIND       PRES   REMARKS
WINCHESTER*    CLOUDY    39  32  75 NW12      29.49F
FRONT ROYAL*   CLOUDY    36  34  93 S3        29.48F
LURAY*         CLOUDY    39  39 100 S3        29.50F
NEW MARKET*    CLOUDY    36  34  94 CALM      29.50F
STAUNTON*      CLOUDY    37  34  90 CALM      29.53F
WAYNESBORO*    CLOUDY    35  34  94 CALM      29.51S

$$

WVZ021-048>050-054>055-241900-
EASTERN WEST VIRGINIA PANHANDLE

CITY           SKY/WX    TMP DP  RH WIND       PRES   REMARKS
MARTINSBURG    CLOUDY    39  32  76 NW5       29.49F
PETERSBURG*    CLOUDY    37  36  95 S3        29.54F

$$

VAZ036>039-050-241900-
CENTRAL FOOTHILLS

CITY           SKY/WX    TMP DP  RH WIND       PRES   REMARKS
CHARLOTTESVILL CLOUDY    42  35  76 NW7       29.50F
CULPEPER*      MOSUNNY   41  36  81 NW7       29.51S
ORANGE*        DRIZZLE   41  37  87 SW5       29.52S
GORDONSVILLE*  CLOUDY    38  36  92 W3        29.51S
WARRENTON*     CLOUDY    40  38  93 NW10      29.49S

$$

VAZ055>057-241900-
NORTH AND CENTRAL PIEDMONT

CITY           SKY/WX    TMP DP  RH WIND       PRES   REMARKS
FREDERICKSBRG* CLOUDY    40  38  89 NW9G21    29.48F
STAFFORD*      DRIZZLE   39  39 100 NW14      29.52F

$$

NCZ024-NYZ072-PAZ021-071-VAZ022-071-241900-
OTHER REGIONAL OBSERVATIONS

CITY           SKY/WX    TMP DP  RH WIND       PRES   REMARKS
NEW YORK CITY  CLOUDY    35  32  88 MISG      29.34F FOG
PHILADELPHIA   CLOUDY    37  33  85 NW14      29.39S WCI  28
PITTSBURGH     CLOUDY    27  22  81 W9        29.60F WCI  18
ROANOKE        CLOUDY    41  28  60 W23G29    29.60S
RICHMOND       CLOUDY    40  38  93 NW12      29.47S
RALEIGH        CLOUDY    42  38  85 W8        29.61R

$$

ANZ530>537-241900-
MARINE OBSERVATIONS

STATION/POSITION TIME  TEMP    WIND        PRES
                       AIR SEA DIR/SP/G
                 (UTC) (F)     (DEG/KT/KT) (MB)
THOMAS PT LIGHT  1800   38 37  310/ 14/ 16  997.5F
BALT KEY BRIDGE  1800   38     300/ 12/ 14  996.8S
COVE POINT       1800   38     340/ 14/ 16  996.1F
LEWISETTA        1800   38 38  320/ 10/ 13  995.5F
SOLOMONS ISLAND  1800      38                N/A
PINEY POINT      1800          330/ 15/ 17   N/A

$$



USA.gov is the U.S. government's official web portal to all federal, state and local government web resources and services.